Location: Gebenbach
(49.5378°N, 11.8735°E)
Time: 03:19:25
(UTC+00:00)

ATLAS 5 CENTAUR R/B - Pass Details

Date: 29 October 2020
Orbit: 531 x 1127 km, 63.4° (Epoch: 22 November)

Event Time Altitude Azimuth Distance (km) Brightness Sun altitude
Rises 18:10:11 0° 303° (WNW) 2,958 6.1 -22.4°
Reaches altitude 10° 18:13:06 10° 324° (NW) 2,149 4.8 -22.9°
Maximum altitude 18:16:24 18° 6° (N) 1,805 3.9 -23.4°
Enters shadow 18:17:30 17° 22° (NNE) 1,894 3.9 -23.6°
